Flag for France Weather past 2 weeks in Paris, France

Now
66 °F

Clear.


Feels Like: 66 °F
Forecast: 54 / 75 °F
Wind: 3 mph from Northeast

Location: Villacoublay

Current Time: Oct 2, 2014 at 1:07:57 PM

Latest Report: Oct 2, 2014 at 12:30 PM


Visibility: N/A

Pressure: 30.39 "Hg

Humidity: 73%

Dew point: 57 °F

Location of ParisLocation

Historic Weather in Paris — Graph

°F

Paris temperature yesterday

Maximum temperature yesterday: 73 °F (at 3:30 PM)
Minimum temperature yesterday: 54 °F (at 8:00 AM)
Average temperature yesterday: 64 °F

Past Weeks' High & Low Weather Summary

 TemperatureHumidityPressure
High79 °F (Sep 17, 5:00 PM)100% (Sep 21, 8:00 AM)30.39 "Hg (Sep 21, 8:00 AM)
Low46 °F (Sep 24, 6:30 AM)43% (Sep 25, 2:00 PM)29.74 "Hg (Sep 18, 7:30 AM)
Average63 °F74%30.13 "Hg
* Reported Sep 17 12:00 Noon — Oct 2 12:00 Noon, Paris, Weather by CustomWeather, © 2014

Note: Actual official high and low records may vary slightly from our data, if they occured in-between our weather recording intervals... More about our weather records

Advertising

Paris weather history for previous 24 hours

 ConditionsComfort  
Time TempWeatherWind HumidityBarometerVisibility
12:00 PM
Oct 2
66 °FClear.6 mph68%30.39 "HgN/A
11:30 AM64 °FClear.6 mph73%30.39 "HgN/A
11:00 AM64 °FClear.6 mph73%30.39 "HgN/A
10:30 AM64 °FClear.6 mph73%30.39 "HgN/A
10:00 AM63 °FClear.7 mph77%30.39 "HgN/A
9:30 AM63 °FClear.8 mph77%30.39 "HgN/A
9:00 AM61 °FClear.7 mph83%30.39 "HgN/A
8:30 AM61 °FClear.7 mph83%30.39 "HgN/A
8:00 AM61 °FClear.6 mph83%30.36 "HgN/A
7:30 AM61 °FClear.5 mph83%30.36 "HgN/A
7:00 AM61 °FClear.5 mph83%30.36 "HgN/A
6:30 AM59 °FClear.6 mph88%30.36 "HgN/A
6:00 AM59 °FClear.6 mph88%30.36 "HgN/A
5:30 AM61 °FClear.6 mph83%30.36 "HgN/A
5:00 AM61 °FClear.5 mph83%30.36 "HgN/A
4:30 AM61 °FClear.5 mph83%30.36 "HgN/A
4:00 AM63 °FClear.5 mph77%30.36 "HgN/A
3:30 AM63 °FClear.6 mph77%30.36 "HgN/A
3:00 AM63 °FClear.6 mph83%30.36 "HgN/A
2:30 AM63 °FClear.6 mph77%30.36 "HgN/A
2:00 AM63 °FClear.5 mph77%30.36 "HgN/A
1:30 AM61 °FClear.3 mph77%30.36 "HgN/A
1:00 AM63 °FClear.5 mph73%30.36 "HgN/A
12:30 AM61 °FClear.5 mph77%30.36 "HgN/A
12:00 AM61 °FClear.2 mph72%30.36 "HgN/A
11:30 PM
Oct 1
63 °FClear.3 mph73%30.36 "HgN/A
11:00 PM63 °FClear.3 mph73%30.36 "HgN/A
10:30 PM63 °FClear.3 mph73%30.36 "HgN/A
10:00 PM64 °FClear.5 mph68%30.36 "HgN/A
9:30 PM64 °FClear.5 mph68%30.36 "HgN/A
9:00 PM64 °FClear.5 mph68%30.36 "HgN/A
8:30 PM66 °FClear.3 mph64%30.33 "HgN/A
8:00 PM64 °FClear.No wind64%30.33 "HgN/A
7:30 PM68 °FClear.3 mph60%30.33 "HgN/A
7:00 PM70 °FClear.5 mph57%30.33 "HgN/A
6:30 PM72 °FClear.5 mph50%30.33 "HgN/A
6:00 PM72 °FClear.3 mph50%30.33 "HgN/A
5:30 PM72 °FClear.5 mph50%30.33 "HgN/A
5:00 PM72 °FClear.6 mph50%30.33 "HgN/A
4:30 PM72 °FClear.6 mph50%30.33 "HgN/A
4:00 PM73 °FClear.5 mph44%30.33 "HgN/A
3:30 PM73 °FClear.3 mph44%30.33 "HgN/A
3:00 PM72 °FClear.3 mph47%30.33 "HgN/A
2:30 PM72 °FClear.3 mph47%30.33 "HgN/A
2:00 PM72 °FPassing clouds.3 mph47%30.33 "HgN/A
1:30 PM70 °FPassing clouds.3 mph64%30.36 "HgN/A
1:00 PM70 °FPassing clouds.6 mph64%30.36 "HgN/A
Weather by CustomWeather, © 2014

See weather overviewHow to use our weather pages